Fort Collins, CO

11:13 PM MST on December 10, 2019 (GMT -0700)
Fort Collins-Loveland Municipal

Weather History for KFNL - October, 2019

Change the Weather History Date:

Sunday, October 13, 2019

  Actual Average Record
Temperature  
Mean Temperature 51 °F -  
Max Temperature 75 °F - 82 °F (1996)
Min Temperature 27 °F - 24 °F (1997)
Degree Days  
Heating Degree Days 14    
Month to date heating degree days 217  
Cooling Degree Days 0    
Month to date cooling degree days 0  
Growing Degree Days 2 (Base 50)    
Moisture  
Dew Point 23 °F    
Average Humidity 39    
Maximum Humidity 69    
Minimum Humidity 9    
Precipitation  
Precipitation 0.00 in - 0.33 in (2007)
Snow  
Snow 0.00 in - - ()
Snow Depth 0.00 in    
Sea Level Pressure  
Sea Level Pressure 29.92 in    
Wind  
Wind Speed 5 mph (NE)    
Max Wind Speed 10 mph    
Max Gust Speed -    
Visibility 10 miles    
Events      
T = Trace of Precipitation, MM = Missing Value Source: NWS Daily Summary

Daily Weather History Graph

Daily Weather History Graph

Search for Another Location

Airport or City:

Astronomy

Oct. 13, 2019 Rise Set
Actual Time 7:08 AM MDT 6:23 PM MDT
Civil Twilight 6:41 AM MDT 6:50 PM MDT
Nautical Twilight 6:09 AM MDT 7:22 PM MDT
Astronomical Twilight 5:38 AM MDT 7:53 PM MDT
Moon 6:47 PM MDT (10/13) 6:44 AM MDT (10/13)
Length of Visible Light 12h 09m
Length of Day
11h 14m
Full, 100% of the Moon is Illuminated
Oct 13
Full
Oct 13
Full
Oct 21
Last Quarter
Oct 27
New
Nov 4
First Quarter

Hourly Weather History & Observations

Time (MDT) Temp. Windchill Dew Point Humidity Pressure Visibility Wind Dir Wind Speed Gust Speed Precip Events Conditions
12:56 AM 39.9 °F 35.1 °F 26.1 °F 58% 29.93 in 10.0 mi North 6.9 mph - N/A   Clear
1:56 AM 37.0 °F 31.6 °F 26.1 °F 65% 29.92 in 10.0 mi NNE 6.9 mph - N/A   Clear
2:56 AM 35.1 °F 31.0 °F 24.1 °F 64% 29.93 in 10.0 mi North 4.6 mph - N/A   Clear
3:56 AM 36.0 °F 33.3 °F 23.0 °F 59% 29.91 in 10.0 mi NNE 3.5 mph - N/A   Clear
4:56 AM 36.0 °F 31.1 °F 21.0 °F 55% 29.91 in 10.0 mi NNE 5.8 mph - N/A   Clear
5:56 AM 34.0 °F - 21.9 °F 61% 29.93 in 10.0 mi Calm Calm - N/A   Clear
6:56 AM 32.0 °F 26.4 °F 21.9 °F 66% 29.98 in 10.0 mi NNE 5.8 mph - N/A   Clear
7:56 AM 33.1 °F - 24.1 °F 70% 30.01 in 10.0 mi Calm Calm - N/A   Clear
8:56 AM 39.9 °F - 27.0 °F 60% 30.01 in 10.0 mi Calm Calm - N/A   Clear
9:56 AM 48.0 °F - 25.0 °F 41% 30.01 in 10.0 mi Calm Calm - N/A   Clear
10:56 AM 55.9 °F - 21.0 °F 26% 29.97 in 10.0 mi Variable 3.5 mph - N/A   Clear
11:56 AM 60.1 °F - 25.0 °F 26% 29.94 in 10.0 mi South 5.8 mph - N/A   Clear
12:56 PM 66.0 °F - 21.9 °F 19% 29.89 in 10.0 mi South 9.2 mph - N/A   Clear
1:56 PM 70.0 °F - 17.1 °F 13% 29.86 in 10.0 mi SE 10.4 mph - N/A   Clear
2:56 PM 71.1 °F - 12.9 °F 11% 29.84 in 10.0 mi South 5.8 mph - N/A   Clear
3:56 PM 73.0 °F - 12.9 °F 10% 29.83 in 10.0 mi Variable 5.8 mph - N/A   Clear
4:56 PM 72.0 °F - 12.0 °F 10% 29.84 in 10.0 mi ESE 6.9 mph - N/A   Clear
5:56 PM 68.0 °F - 17.1 °F 14% 29.86 in 10.0 mi East 5.8 mph - N/A   Clear
7:56 PM 55.0 °F - 32.0 °F 42% 29.92 in 10.0 mi West 4.6 mph - N/A   Clear
8:56 PM 50.0 °F - 34.0 °F 54% 29.92 in 10.0 mi Calm Calm - N/A   Clear
9:56 PM 48.9 °F - 30.0 °F 48% 29.90 in 10.0 mi Calm Calm - N/A   Clear
10:56 PM 45.0 °F 41.8 °F 25.0 °F 46% 29.88 in 10.0 mi NNE 5.8 mph - N/A   Clear
11:56 PM 43.0 °F 39.5 °F 24.1 °F 47% 29.87 in 10.0 mi NNE 5.8 mph - N/A   Clear